Flag for Switzerland

Past Weather in Bern, Bern, Switzerland — Yesterday and Last 2 Weeks

Now
54 °F

Cool.


Feels Like: 54 °F
Forecast: 71 / 53 °F
Wind: 1 mph from North

Location: Bern / Belp

Current Time: Jul 5, 2020 at 3:58:46 am

Latest Report: Jul 5, 2020 at 3:20 am


Visibility: N/A

Pressure: 30.18 "Hg (28.31 "Hg at 533m altitude)

Humidity: 100%

Dew Point: 54 °F

Location of BernLocation

Past Weather in Bern — Graph

°F

Bern Temperature Yesterday

Maximum temperature yesterday: 79 °F (at 6:20 pm)
Minimum temperature yesterday: 52 °F (at 1:20 am)
Average temperature yesterday: 65 °F

High & Low Weather Summary for the Past Weeks

 TemperatureHumidityPressure
High86 °F (Jul 1, 4:20 pm)100% (Jun 20, 1:20 am)30.27 "Hg (Jun 20, 1:20 am)
Low48 °F (Jun 20, 5:20 am)31% (Jun 27, 6:20 pm)29.83 "Hg (Jul 1, 6:50 pm)
Average67 °F75%30.08 "Hg
* Reported Jun 20 1:20 am — Jul 5 1:50 am, Bern. Weather by CustomWeather, © 2020

Note: Actual official high and low records may vary slightly from our data, if they occured in-between our weather recording intervals... More about our weather records

Bern Weather History for the Previous 24 Hours

Scroll right to see more
 ConditionsComfort  
Time TempWeatherWind HumidityBarometerVisibility
1:50 am
Sun, Jul 5
55 °FClear.2 mph100%30.18 "Hg10 mi
1:20 am57 °FClear.2 mph100%30.18 "Hg10 mi
12:50 am57 °FClear.1 mph100%30.18 "Hg10 mi
12:20 am59 °FClear.2 mph94%30.18 "Hg10 mi
11:50 pm
Sat, Jul 4
59 °FClear.1 mph94%30.18 "Hg10 mi
11:20 pm61 °FClear.2 mph94%30.18 "Hg10 mi
10:50 pm63 °FMild.1 mph83%30.15 "HgN/A
10:20 pm63 °FClear.3 mph83%30.15 "Hg10 mi
9:50 pm64 °FClear.5 mph78%30.15 "HgN/A
9:20 pm64 °FSunny.1 mph83%30.15 "Hg10 mi
8:50 pm68 °FSunny.1 mph73%30.15 "Hg10 mi
8:20 pm73 °FPassing clouds.5 mph53%30.15 "HgN/A
7:50 pm75 °FSunny.5 mph47%30.15 "Hg10 mi
7:20 pm77 °FSunny.9 mph44%30.12 "Hg10 mi
6:50 pm77 °FPassing clouds.6 mph39%30.12 "HgN/A
6:20 pm79 °FPassing clouds.6 mph39%30.15 "HgN/A
5:50 pm77 °FPassing clouds.8 mph39%30.15 "HgN/A
5:20 pm77 °FPassing clouds.6 mph44%30.15 "HgN/A
4:50 pm75 °FPassing clouds.7 mph47%30.15 "HgN/A
4:20 pm77 °FScattered clouds.6 mph44%30.15 "HgN/A
3:50 pm75 °FScattered clouds.7 mph47%30.15 "HgN/A
3:20 pm73 °FScattered clouds.6 mph47%30.15 "HgN/A
2:50 pm75 °FScattered clouds.7 mph47%30.15 "HgN/A
2:20 pm72 °FScattered clouds.3 mph47%30.15 "HgN/A
1:50 pm73 °FScattered clouds.5 mph47%30.15 "HgN/A
1:20 pm72 °FPassing clouds.3 mph47%30.18 "HgN/A
12:50 pm72 °FPassing clouds.5 mph50%30.18 "HgN/A
12:20 pm72 °FPassing clouds.3 mph47%30.18 "HgN/A
11:50 am70 °FPassing clouds.3 mph53%30.18 "HgN/A
11:20 am70 °FScattered clouds.3 mph57%30.18 "HgN/A
10:50 am70 °FScattered clouds.3 mph53%30.18 "HgN/A
10:20 am66 °FPassing clouds.2 mph64%30.18 "HgN/A
9:50 am66 °FPassing clouds.3 mph68%30.18 "HgN/A
9:20 am66 °FPassing clouds.3 mph73%30.18 "HgN/A
8:50 am63 °FPassing clouds.5 mph77%30.18 "HgN/A
8:20 am63 °FPassing clouds.5 mph77%30.18 "HgN/A
7:50 am61 °FSunny.6 mph83%30.18 "Hg10 mi
7:20 am59 °FPassing clouds.5 mph88%30.18 "HgN/A
6:50 am55 °FPartly sunny.3 mph100%30.18 "HgN/A
6:20 am55 °FOvercast.5 mph100%30.18 "HgN/A
5:50 am55 °FOvercast.5 mph94%30.18 "HgN/A
5:20 am55 °FOvercast.5 mph100%30.18 "HgN/A
4:50 am55 °FOvercast.7 mph100%30.18 "HgN/A
4:20 am54 °FPartly cloudy.7 mph100%30.18 "HgN/A
3:50 am54 °FOvercast.6 mph100%30.18 "HgN/A
3:20 am54 °FOvercast.6 mph100%30.18 "HgN/A
Weather by CustomWeather, © 2020

See weather overview